This is the latest recevied weather packets stored in our database for station/object KE8ZLU. If no packets are shown the sender has not sent any weather packets the latest 10 day(s).
| Time | Temp. | Humidity | Pressure | Rain* | Wind** | Luminosity | Snow |
|---|---|---|---|---|---|---|---|
| 1777472076 | 8.89° C | 93% | 1013.8 hPa | 0 mm | - | 132 W/m² | - |
| 1777471776 | 8.89° C | 93% | 1013.8 hPa | 0 mm | - | 157 W/m² | - |
| 1777471473 | 8.89° C | 92% | 1013.8 hPa | 0 mm | - | 156 W/m² | - |
| 1777471170 | 8.89° C | 93% | 1013.8 hPa | 0 mm | - | 171 W/m² | - |
| 1777470866 | 8.33° C | 94% | 1013.8 hPa | 0 mm | - | 118 W/m² | - |
| 1777470563 | 8.33° C | 94% | 1014 hPa | 0 mm | - | 91 W/m² | - |
| 1777470259 | 8.33° C | 93% | 1014.1 hPa | 0 mm | - | 81 W/m² | - |
| 1777469955 | 8.33° C | 94% | 1014.1 hPa | 0 mm | - | 93 W/m² | - |
| 1777469651 | 8.33° C | 94% | 1014.2 hPa | 0 mm | - | 76 W/m² | - |
| 1777469347 | 8.33° C | 95% | 1014.4 hPa | 0 mm | - | 64 W/m² | - |
| 1777469042 | 8.33° C | 96% | 1014.4 hPa | 0 mm | - | 57 W/m² | - |
| 1777468738 | 8.33° C | 96% | 1014.1 hPa | 0 mm | - | 53 W/m² | - |
| 1777468434 | 8.33° C | 96% | 1014.5 hPa | 0 mm | - | 54 W/m² | - |
| 1777468130 | 8.33° C | 96% | 1014.5 hPa | 0 mm | - | 49 W/m² | - |
| 1777467827 | 8.33° C | 96% | 1014.6 hPa | 0 mm | - | 34 W/m² | - |
| 1777467522 | 8.33° C | 96% | 1014.4 hPa | 0 mm | - | 38 W/m² | - |
| 1777467217 | 8.33° C | 96% | 1014.4 hPa | 0 mm | - | 52 W/m² | - |
| 1777466915 | 8.33° C | 96% | 1014.6 hPa | 0 mm | - | 34 W/m² | - |
| 1777466612 | 8.33° C | 95% | 1014.5 hPa | 0 mm | - | 40 W/m² | - |
| 1777466309 | 8.33° C | 95% | 1014.2 hPa | 0 mm | - | 68 W/m² | - |
| 1777466005 | 8.33° C | 95% | 1014.4 hPa | 0 mm | - | 44 W/m² | - |
| 1777465701 | 8.33° C | 95% | 1014.4 hPa | 0 mm | - | 47 W/m² | - |
| 1777465398 | 8.33° C | 95% | 1014.4 hPa | 0 mm | - | 43 W/m² | - |
| 1777465096 | 8.33° C | 95% | 1014.3 hPa | 0 mm | - | 38 W/m² | - |
| 1777464792 | 7.78° C | 95% | 1014.1 hPa | 0 mm | - | 56 W/m² | - |
* Rain latest hour (hover to see other rain measurements)
** Current wind speed in m/s (hover to see current wind gust speed)